Regional Weather Roundup
Issued by NWS Wakefield, VA

Home | Current Version | Previous Version | Text Only | Print | Product List | Glossary Off
Versions: 1 2 3 4 5 6 7 8 9 10 11 12 13 14 15 16 17 18 19 20 21 22 23 24 25 26 27 28 29 30 31 32 33 34 35 36 37 38 39 40 41 42 43 44 45 46 47 48 49 50

000
ASUS41 KAKQ 100910
RWRAKQ

REGIONAL WEATHER ROUNDUP
NATIONAL WEATHER SERVICE WAKEFIELD VA
500 AM EDT THU JUL 10 2014

Note: "fair" indicates few or no clouds below 12,000 feet with no
significant weather and/or obstructions to visibility. * = Denotes
station may not report precipitation (e.g., rain,snow,etc.),
thunder or fog.

VAZ042-051-052>054-056-101000-
NORTHERN VIRGINIA

CITY           SKY/WX    TMP DP  RH WIND       PRES   REMARKS
WASH NATIONAL  MOCLDY    73  68  84 SW5       30.00R
DULLES         MOCLDY    67  67 100 S3        30.00R
FORT BELVOIR   MOCLDY    67  66  98 CALM      30.00R FOG
QUANTICO       CLOUDY    73  69  87 VRB3      30.00S
FREDERICKSBRG* CLOUDY    73  70  91 CALM      29.99S
STAFFORD*      CLOUDY    69  69 100 CALM      30.04S
WARRENTON      CLOUDY    69  69 100 CALM      30.00R
CULPEPER*      FOG      N/A N/A N/A CALM      30.01R VSB 3/4
MANASSAS*      CLOUDY    70  70 100 CALM      30.00R VSB 1/2
LEESBURG*      MOCLDY    70  70 100 N3        30.01R
WINCHESTER     PTCLDY    63  63 100 CALM      30.02R FOG
$$

VAZ048-049-060>072-079>083-101000-
CENTRAL AND SOUTH CENTRAL VIRGINIA...AND NORTH CENTRAL NORTH CAROLINA

CITY           SKY/WX    TMP DP  RH WIND       PRES   REMARKS
RICHMOND       CLOUDY    73  69  87 S3        30.00S
CHESTERFIELD*  CLOUDY    72  61  68 CALM      30.02S
HANOVER        CLOUDY    73  69  87 SW5       30.01S
TAPPAHANNOCK*  CLOUDY    73  68  86 CALM      30.00S
CHARLOTTSVILLE CLOUDY    68  67  96 S7        30.01S
ORANGE*        CLOUDY    68  66  94 S3        30.03R
LOUISA*        CLOUDY    70  66  88 CALM      30.00S
FARMVILLE*     CLOUDY    70  68  94 CALM      29.99S FOG
SOUTH HILL*    CLOUDY    72  72 100 CALM      30.07R FOG
ROANOKE RAPIDS CLOUDY    66  64  94 CALM      30.01S FOG
RALEIGH        CLOUDY    74  67  78 SW3       30.01S
$$

VAZ088>098-101000-
SOUTHEAST VIRGINIA

CITY           SKY/WX    TMP DP  RH WIND       PRES   REMARKS
NORFOLK        CLOUDY    73  70  90 S7        30.00F
VIRGINIA BEACH LGT RAIN  73  71  93 S6        30.01S
NORFOLK NAVAL  CLOUDY    75  71  87 S5        30.02R
WEST POINT*    CLOUDY    75  72  88 CALM      30.02S
NEWPORT NEWS   CLOUDY    77  71  82 SW8       30.00S
LANGLEY AFB    CLOUDY    73  73 100 S9        30.00R
FORT EUSTIS    CLOUDY    74  74 100 VRB2      29.99R
WILLIAMSBURG*  CLOUDY    73  73 100 CALM      30.02S
FRANKLIN*      CLOUDY    72 N/A N/A CALM      30.00F
WAKEFIELD      CLOUDY    73  70  90 CALM      30.01S FOG
$$

VAZ020-022-025-037-045-101000-
WESTERN AND SOUTHWEST VIRGINIA

CITY           SKY/WX    TMP DP  RH WIND       PRES   REMARKS
STAUNTON*      CLOUDY    64  62  93 CALM      30.07R FOG
HOT SPRINGS VA CLOUDY    62  55  77 W7        30.18R
LYNCHBURG      FOG       66  66 100 CALM      30.04S VSB 1/2
DANVILLE       NOT AVBL
MARTINSVILLE   CLOUDY    68  66  94 CALM      30.04F
ROANOKE        CLOUDY    69  66  90 NE3       30.05F
BLACKSBURG     CLOUDY    66  66 100 CALM      30.11S FOG
DUBLIN*        CLOUDY    66  66 100 CALM      30.10S FOG
MARION*        MOCLDY    63  63 100 W5        30.13S FOG
HILLSVILLE*    CLOUDY    64  63  97 NE3       30.11S
RICHLANDS*     MOSUNNY   66  65  94 CALM      30.11S FOG
WISE*          FOG       63  63 100 CALM      30.12S VSB<1/4
ABINGDON*      CLOUDY    69  68  97 CALM      30.09S
$$

MDZ021>025-VAZ099-100-101000-
SOUTHERN MARYLAND AND THE DELMARVA PENINSULA

CITY           SKY/WX    TMP DP  RH WIND       PRES   REMARKS
PATUXENT RIVER CLOUDY    74  69  85 SW5       29.99S
BAY BRIDGE APT   N/A     72  72 100 SW3       29.99R
LEONARDTOWN    CLOUDY    72  68  88 SW3       30.01S
DOVER          CLOUDY    73  73 100 W2        29.97S
GEORGETOWN     CLOUDY    74  71  91 S13       30.00R
EASTON         CLOUDY    76  76 100 SW5       30.03R
CAMBRIDGE      MOCLDY    77  72  83 SW3       29.99S
SALISBURY      CLOUDY    75  71  87 S3        30.00S
OCEAN CITY     CLOUDY    73  71  93 W6        30.00R
WALLOPS ISLAND CLOUDY    73  71  93 SW8       30.01R
ACCOMACK*        N/A     72  70  94 CALM      30.00F
$$

NCZ012>017-030>032-101000-
EASTERN NORTH CAROLINA

CITY           SKY/WX    TMP DP  RH WIND       PRES   REMARKS
ELIZABETH CITY RAIN      75  73  93 NW7       30.03R FOG
AHOSKIE*       CLOUDY    72  70  94 CALM      30.01S
EDENTON*         N/A     72  70  93 S10       30.02F
CURRITUCK*     CLOUDY    75  72  91 SW5       30.04R
KILL DEVIL HLS PTCLDY    78  75  90 SW6       30.02S
MANTEO           N/A     79  75  88 SW16      30.04S
CAPE HATTERAS  PTCLDY    80  76  87 SW10      30.06S
GOLDSBORO      MOCLDY    72  71  98 SE7       30.01S
WASHINGTON     PTCLDY    78  73  83 S5        30.03S
GREENVILLE     LGT RAIN  77  75  94 SW6       30.05R
NEW BERN       PTCLDY    79  74  84 S9        30.05S
WILMINGTON     PTCLDY    79  75  87 S6        30.03F
$$

VAZ048-101000-
ELSEWHERE

CITY           SKY/WX    TMP DP  RH WIND       PRES   REMARKS
HARRISBURG PA  PTCLDY    67  62  84 NW3       30.01R
BALTIMORE      MOCLDY    69  67  93 CALM      29.99R
ANNAPOLIS      CLOUDY    71  68  90 CALM      29.98R
ANDREWS AFB    MOCLDY    70  70 100 SW6       30.00R
WILMINGTON DE  MOCLDY    73  69  87 S3        30.00R
PHILADELPHIA   MOCLDY    75  68  78 SE3       30.00R
WILDWOOD NJ*   CLOUDY    73  70  88 SW7       30.00S
ATLANTIC CITY  CLOUDY    72  71  97 CALM      30.00R
HENDERSON NC   CLOUDY    71  68  90 CALM      30.02S
GREENSBORO     CLOUDY    71  69  93 SE3       30.02F
ROCKY MOUNT    MOCLDY    75  72  90 S5        30.02R
FAYETTEVILLE   CLOUDY    78  73  84 S3        30.01S
CHARLOTTE      CLOUDY    72  69  90 CALM      30.03S
$$

VAZ100-101000-
MARINE

STATION/POSITION TIME  TEMP    WIND        PRES    WAVE   SWELL
                       AIR SEA DIR/SP/G            HT/PER HT/PER
                 (UTC) (F)     (DEG/KT/KT) (MB)    (FT/S) (FT/S)
44066 TX TWR #4  0900   71 70  240/ 10/ 12 1016.2R   5/ 7   5/ 7
CAPE MAY NJ      0900   72 72  220/  3/  5 1015.3R
LEWES DE         0900   74 65  230/  5/  9 1014.7S
15NM E FENWICK I 0900   72 72              1015.6R   4/ 6
OCEAN-CITY-INLET 0900   73 71  270/  7/  9 1015.5R
WACHAPREAGUE VA  0900   74 80  170/  6/  9 1015.7S
THOMAS POINT MD  0900   73 78  220/  9/ 10 1016.1R
GOOSES REEF MD   0900   75     240/ 10/ 12 1015.9R
COVE POINT MD    0900   74     230/ 11/ 13 1015.3S
SOLOMONS ISLAND  0900      80                N/A
BISHOPS HEAD MD  0900   76 79  200/  8/ 11 1015.5R
PINEY POINT MD   0900          210/  4/  5   N/A
POTOMAC MD       0900   76     210/ 10/ 12 1015.0S
CAMBRIDGE MD     0900   75 80  200/  4/  6 1015.0S
LEWISETTA VA     0900   75 80  200/  8/  9 1015.3S
RAPPAHANNOCK LGT 0900          180/ 12/ 13 1016.2R
STINGRAY PT      0900   75     250/  8/ 10 1015.0S
YORK RVR RNG VA  0900   76     220/ 10/ 11 1015.1R
YORKTOWN VA      0900   74 79  230/  4/  5 1015.6R
JAMESTOWN VA     0900   72     270/  2/  4   N/A
DOMINION TERM VA 0900   75     190/ 12/ 14 1015.7S
KIPTOPEKE VA     0900      82  160/  9/ 10   N/A
CHES BAY BRIDGE  0900   75 78  150/ 11/ 13 1015.2F
CAPE HENRY VA    0900   73     170/  5/ 11 1014.8F
WILLOUBY STN VA  0900   75     180/ 11/ 12 1015.0S
S CRANEY ISL VA  0900          180/  7/ 10 1015.9R
CAPE HENRY BUOY  0900      76                N/A     3/ 5
1ST LANDING BUOY 0900   75     170/ 10/ 12 1015.8S
CAPE CHARLES BUO 0900      71                N/A     2/ 6
OFFSHORE WE BUOY 0900      74                N/A     3/ 6
64NM E OF VA BCH 0900   76 75  150/  4/  6 1016.8F   4/ 6   3/ 6
DUCK PIER NC     0900   80 63  210/ 13/ 18 1016.1S
44056 DUCK FRF   0900                        N/A     2/ 5
OREGON INLET NC  0900   81 84  200/ 17/ 20 1017.1F
HATTERAS NC      0900   80 82  210/ 11/ 17 1018.2S
DIAMOND SHLS NC  0900          VRB 17/ 21  1017.6F   5/ 6
CAPE LOOKOUT NC  0800   81     210/ 10/ 13 1017.9F
$$


USA.gov is the U.S. government's official web portal to all federal, state and local government web resources and services.